When you browse on this site, cookies collect data to enhance your experience and personalize the content and advertising you see.
Visit our Privacy Policy to learn more. By continuing to use the site, you agree to this use of cookies and data.
  • In Österreich
  • Länderverzeichnis
  • Für 7 Tage
  • Wassertemperatur
  • Satellitenkarten
  • Wetterkarte
  • News
  • Widgets
  • user-avatar
    Anmelden

    Stündliche Wetter Punta Gorda

    Heute, 26 Juni, Mittwoch

    Zeit Temperatur Niederschläge Wind Luftdruck Luftfeuchtigkeit
    00:00 +27°C° 0 mm 3 m/S 760 mmHg 92%
    01:00 +27°C° 0.2 mm 3 m/S 760 mmHg 93%
    02:00 +27°C° 0.2 mm 3 m/S 759 mmHg 95%
    03:00 +27°C° 0.2 mm 3 m/S 759 mmHg 96%
    04:00 +27°C° 0.5 mm 3 m/S 759 mmHg 96%
    05:00 +27°C° 0.5 mm 3 m/S 760 mmHg 96%
    06:00 +27°C° 0.5 mm 3 m/S 760 mmHg 96%
    07:00 +28°C° 0.5 mm 3 m/S 760 mmHg 94%
    08:00 +29°C° 0.5 mm 3 m/S 760 mmHg 92%
    09:00 +30°C° 0.5 mm 4 m/S 760 mmHg 90%
    10:00 +30°C° 0.6 mm 4 m/S 760 mmHg 88%
    11:00 +30°C° 0.6 mm 4 m/S 760 mmHg 86%
    12:00 +32°C° 0.6 mm 4 m/S 760 mmHg 83%
    13:00 +32°C° 0.9 mm 4 m/S 759 mmHg 83%
    14:00 +30°C° 0.9 mm 4 m/S 758 mmHg 83%
    15:00 +30°C° 0.9 mm 5 m/S 758 mmHg 83%
    16:00 +30°C° 1.3 mm 5 m/S 758 mmHg 85%
    17:00 +29°C° 1.3 mm 5 m/S 759 mmHg 87%
    18:00 +28°C° 1.3 mm 5 m/S 759 mmHg 88%
    19:00 +28°C° 1.7 mm 5 m/S 759 mmHg 91%
    20:00 +27°C° 1.7 mm 5 m/S 760 mmHg 93%
    21:00 +26°C° 1.7 mm 5 m/S 760 mmHg 96%
    22:00 +26°C° 1.3 mm 4 m/S 760 mmHg 96%
    23:00 +26°C° 1.3 mm 4 m/S 760 mmHg 96%

    Morgen, 27 Juni, Donnerstag

    Zeit Temperatur Niederschläge Wind Luftdruck Luftfeuchtigkeit
    00:00 +26°C° 1.3 mm 3 m/S 760 mmHg 96%
    01:00 +26°C° 0.9 mm 3 m/S 760 mmHg 96%
    02:00 +26°C° 0.9 mm 3 m/S 759 mmHg 97%
    03:00 +26°C° 0.9 mm 3 m/S 759 mmHg 97%
    04:00 +26°C° 0.9 mm 3 m/S 759 mmHg 97%
    05:00 +26°C° 0.9 mm 3 m/S 760 mmHg 97%
    06:00 +26°C° 0.9 mm 3 m/S 760 mmHg 96%
    07:00 +27°C° 1 mm 3 m/S 760 mmHg 93%
    08:00 +28°C° 1 mm 3 m/S 760 mmHg 89%
    09:00 +29°C° 1 mm 3 m/S 761 mmHg 86%
    10:00 +30°C° 1.1 mm 3 m/S 760 mmHg 84%
    11:00 +30°C° 1.1 mm 4 m/S 760 mmHg 82%
    12:00 +32°C° 1.1 mm 4 m/S 760 mmHg 80%
    13:00 +32°C° 0.4 mm 4 m/S 760 mmHg 75%
    14:00 +33°C° 0.4 mm 5 m/S 759 mmHg 70%
    15:00 +34°C° 0.4 mm 5 m/S 759 mmHg 65%
    16:00 +32°C° 1.5 mm 5 m/S 759 mmHg 72%
    17:00 +30°C° 1.5 mm 5 m/S 759 mmHg 78%
    18:00 +28°C° 1.5 mm 5 m/S 759 mmHg 85%
    19:00 +28°C° 1.6 mm 5 m/S 760 mmHg 88%
    20:00 +27°C° 1.6 mm 4 m/S 760 mmHg 91%
    21:00 +26°C° 1.6 mm 3 m/S 761 mmHg 95%
    22:00 +26°C° 1.3 mm 3 m/S 761 mmHg 95%
    23:00 +26°C° 1.3 mm 3 m/S 761 mmHg 95%

    übermorgen, 28 Juni, Freitag

    Zeit Temperatur Niederschläge Wind Luftdruck Luftfeuchtigkeit
    00:00 +26°C° 1.3 mm 3 m/S 761 mmHg 95%
    01:00 +25°C° 0.8 mm 2 m/S 760 mmHg 95%
    02:00 +25°C° 0.8 mm 2 m/S 760 mmHg 96%
    03:00 +25°C° 0.8 mm 2 m/S 759 mmHg 96%
    04:00 +25°C° 0.3 mm 2 m/S 760 mmHg 96%
    05:00 +25°C° 0.3 mm 2 m/S 760 mmHg 96%
    06:00 +25°C° 0.3 mm 2 m/S 760 mmHg 96%
    07:00 +27°C° 0.7 mm 2 m/S 760 mmHg 89%
    08:00 +29°C° 0.7 mm 2 m/S 761 mmHg 81%
    09:00 +31°C° 0.7 mm 2 m/S 761 mmHg 73%
    10:00 +30°C° 0.8 mm 2 m/S 761 mmHg 77%
    11:00 +30°C° 0.8 mm 3 m/S 760 mmHg 81%
    12:00 +30°C° 0.8 mm 3 m/S 760 mmHg 85%
    13:00 +31°C° 0.5 mm 3 m/S 759 mmHg 79%
    14:00 +33°C° 0.5 mm 3 m/S 759 mmHg 73%
    15:00 +33°C° 0.5 mm 3 m/S 758 mmHg 67%
    16:00 +31°C° 0.1 mm 3 m/S 759 mmHg 70%
    17:00 +31°C° 0.1 mm 3 m/S 759 mmHg 73%
    18:00 +30°C° 0.1 mm 3 m/S 759 mmHg 76%
    19:00 +29°C° 0.3 mm 3 m/S 759 mmHg 82%
    20:00 +27°C° 0.3 mm 3 m/S 760 mmHg 89%
    21:00 +26°C° 0.3 mm 3 m/S 761 mmHg 95%
    22:00 +26°C° 0.5 mm 3 m/S 760 mmHg 96%
    23:00 +26°C° 0.5 mm 2 m/S 760 mmHg 96%

    29 Juni, Samstag

    Zeit Temperatur Niederschläge Wind Luftdruck Luftfeuchtigkeit
    00:00 +26°C° 0.5 mm 2 m/S 760 mmHg 96%
    01:00 +25°C° 0.3 mm 2 m/S 760 mmHg 97%
    02:00 +25°C° 0.3 mm 2 m/S 760 mmHg 97%
    03:00 +25°C° 0.3 mm 1 m/S 759 mmHg 98%
    04:00 +25°C° 1.2 mm 1 m/S 760 mmHg 98%
    05:00 +25°C° 1.2 mm 1 m/S 760 mmHg 98%
    06:00 +24°C° 1.2 mm 2 m/S 760 mmHg 98%
    07:00 +26°C° 1.1 mm 1 m/S 760 mmHg 93%
    08:00 +27°C° 1.1 mm 1 m/S 761 mmHg 89%
    09:00 +29°C° 1.1 mm 1 m/S 761 mmHg 84%
    10:00 +27°C° 1.1 mm 2 m/S 761 mmHg 90%
    11:00 +28°C° 1.1 mm 2 m/S 760 mmHg 86%
    12:00 +29°C° 1.1 mm 2 m/S 760 mmHg 81%
    13:00 +30°C° 0.6 mm 3 m/S 760 mmHg 76%
    14:00 +31°C° 0.6 mm 3 m/S 759 mmHg 71%
    15:00 +33°C° 0.6 mm 3 m/S 759 mmHg 66%
    16:00 +30°C° 0.2 mm 3 m/S 759 mmHg 71%
    17:00 +29°C° 0.2 mm 3 m/S 759 mmHg 75%
    18:00 +28°C° 0.2 mm 3 m/S 759 mmHg 80%
    19:00 +27°C° 0.4 mm 3 m/S 760 mmHg 83%
    20:00 +26°C° 0.4 mm 2 m/S 760 mmHg 86%
    21:00 +26°C° 0.4 mm 2 m/S 761 mmHg 90%
    22:00 +25°C° 1.1 mm 2 m/S 761 mmHg 91%
    23:00 +25°C° 1.1 mm 2 m/S 761 mmHg 93%

    30 Juni, Sonntag

    Zeit Temperatur Niederschläge Wind Luftdruck Luftfeuchtigkeit
    00:00 +24°C° 1.1 mm 2 m/S 761 mmHg 95%
    01:00 +24°C° 0.5 mm 1 m/S 760 mmHg 95%
    02:00 +24°C° 0.5 mm 1 m/S 760 mmHg 96%
    03:00 +24°C° 0.5 mm 1 m/S 760 mmHg 96%
    04:00 +24°C° 0.1 mm 1 m/S 760 mmHg 96%
    05:00 +24°C° 0.1 mm 1 m/S 760 mmHg 95%
    06:00 +24°C° 0.1 mm 1 m/S 760 mmHg 95%
    07:00 +27°C° 0 mm 1 m/S 760 mmHg 85%
    08:00 +29°C° 0 mm 1 m/S 761 mmHg 76%
    09:00 +31°C° 0 mm 1 m/S 761 mmHg 67%
    10:00 +31°C° 0.1 mm 1 m/S 761 mmHg 65%
    11:00 +32°C° 0.1 mm 1 m/S 760 mmHg 64%
    12:00 +33°C° 0.1 mm 1 m/S 760 mmHg 62%
    13:00 +32°C° 0.8 mm 2 m/S 759 mmHg 71%
    14:00 +31°C° 0.8 mm 3 m/S 758 mmHg 79%
    15:00 +30°C° 0.8 mm 4 m/S 758 mmHg 88%
    16:00 +29°C° 1.6 mm 4 m/S 758 mmHg 90%
    17:00 +28°C° 1.6 mm 4 m/S 758 mmHg 92%
    18:00 +27°C° 1.6 mm 5 m/S 759 mmHg 94%
    19:00 +27°C° 2.3 mm 5 m/S 759 mmHg 94%
    20:00 +27°C° 2.3 mm 4 m/S 760 mmHg 95%
    21:00 +26°C° 2.3 mm 4 m/S 760 mmHg 96%
    22:00 +26°C° 2.4 mm 4 m/S 760 mmHg 96%
    23:00 +26°C° 2.4 mm 4 m/S 760 mmHg 97%

    1 Juli, Montag

    Zeit Temperatur Niederschläge Wind Luftdruck Luftfeuchtigkeit
    00:00 +26°C° 2.4 mm 4 m/S 760 mmHg 97%
    01:00 +26°C° 2.2 mm 3 m/S 760 mmHg 97%
    02:00 +26°C° 2.2 mm 3 m/S 759 mmHg 97%
    03:00 +26°C° 2.2 mm 2 m/S 759 mmHg 97%
    04:00 +26°C° 0.8 mm 2 m/S 759 mmHg 97%
    05:00 +26°C° 0.8 mm 2 m/S 760 mmHg 97%
    06:00 +26°C° 0.8 mm 2 m/S 760 mmHg 97%
    07:00 +27°C° 0.2 mm 2 m/S 760 mmHg 96%
    08:00 +27°C° 0.2 mm 2 m/S 761 mmHg 94%
    09:00 +28°C° 0.2 mm 2 m/S 761 mmHg 93%
    10:00 +29°C° 0.2 mm 2 m/S 761 mmHg 86%
    11:00 +31°C° 0.2 mm 3 m/S 761 mmHg 79%
    12:00 +33°C° 0.2 mm 3 m/S 760 mmHg 72%
    13:00 +33°C° 0.1 mm 4 m/S 760 mmHg 68%
    14:00 +34°C° 0.1 mm 4 m/S 759 mmHg 65%
    15:00 +34°C° 0.1 mm 5 m/S 759 mmHg 61%
    16:00 +33°C° 0.3 mm 5 m/S 759 mmHg 69%
    17:00 +30°C° 0.3 mm 5 m/S 759 mmHg 77%
    18:00 +29°C° 0.3 mm 5 m/S 759 mmHg 85%
    19:00 +28°C° 0.6 mm 4 m/S 760 mmHg 89%
    20:00 +27°C° 0.6 mm 4 m/S 760 mmHg 93%
    21:00 +26°C° 0.6 mm 4 m/S 760 mmHg 96%
    22:00 +26°C° 0.6 mm 4 m/S 760 mmHg 96%
    23:00 +26°C° 0.6 mm 4 m/S 760 mmHg 96%
    Mehr zeigen